Location: Newark
(10.6500°N, 71.6000°W)
Time: 21:24:25
(UTC+00:00)

N. Korean satellite - Visible Passes

Search period start: 18 October 2019 00:00
Search period end: 28 October 2019 00:00
Orbit: 455 x 508 km, 97.2° (Epoch: 18 October)

Date Brightness Start Highest point End Pass type
(mag) Time Alt. Az. Time Alt. Az. Time Alt. Az.
19 Oct 8.1 10:06:26 10° NNE 10:09:54 42° E 10:13:26 10° S visible
20 Oct 10.0 09:42:11 10° ENE 09:44:39 17° E 09:47:08 10° SE visible
20 Oct 10.7 23:10:27 10° WSW 23:10:49 10° W 23:11:11 10° W visible
21 Oct 9.2 22:42:38 10° SSW 22:45:32 26° W 22:48:26 10° NW visible
23 Oct 8.8 09:58:48 10° NE 10:02:07 32° E 10:05:28 10° SSE visible
24 Oct 10.3 09:35:02 10° ENE 09:36:51 13° E 09:38:39 10° SE visible
24 Oct 10.1 23:01:10 10° SW 23:02:58 14° W 23:04:44 10° WNW visible
27 Oct 9.4 09:51:14 10° NE 09:54:18 24° E 09:57:21 10° SSE visible
